Regional Weather Roundup
Issued by NWS Sterling, VA

Home | Current Version | Previous Version | Text Only | Print | Product List | Glossary Off
Versions: 1 2 3 4 5 6 7 8 9 10 11 12 13 14 15 16 17 18 19 20 21 22 23 24 25 26 27

000
ASUS41 KLWX 241310
RWRLWX

REGIONAL WEATHER ROUNDUP
NATIONAL WEATHER SERVICE BALTIMORE MD/WASHINGTON DC
900 AM EDT FRI MAR 24 2017

Note: "FAIR" indicates few or no clouds below 12,000 feet
with no significant weather and/or obstructions to visibility.
 TC=TEMPERATURE CELSIUS

 * =Non NWS site. Station does not report precipitation (e.g. rain,
    snow, etc.), thunder, or fog.

DCZ001-MDZ009-015-VAZ040>042-051-053>054-241400-
WASHINGTON METRO

CITY           SKY/WX    TMP DP  RH WIND       PRES   REMARKS
WASHINGTON NAT CLOUDY    39  28  64 S14       30.49R
DULLES         CLOUDY    38  26  62 S9        30.46R
ANDREWS AFB    CLOUDY    38  24  55 S14       30.46S
FT BELVOIR     CLOUDY    38  27  63 S9        30.48S
QUANTICO       CLOUDY    39  30  70 SW10      30.51R
COLLEGE PARK*  CLOUDY    37  27  65 S8        30.47S
LEESBURG*      LGT RAIN  37  32  81 S7        30.45S
MANASSAS*      CLOUDY    39  28  64 S7        30.47R
GAITHERSBURG*  CLOUDY    39  23  52 SW12G17   30.48S

$$

MDZ006>007-011-014-241400-
BALTIMORE METRO

CITY           SKY/WX    TMP DP  RH WIND       PRES   REMARKS
BWI AIRPORT    CLOUDY    37  24  59 SW8       30.46S
MD SCIENCE CTR   N/A     39  21  48 MISG      30.48R
MARTIN STATE   PTSUNNY   39  27  60 S9        30.49R
ANNAPOLIS      PTSUNNY   41  22  46 S6        30.48S
FORT MEADE*    CLOUDY    36  27  69 SW8       30.49R

$$

MDZ012-015-019>023-241400-
MARYLAND EASTERN SHORE

CITY           SKY/WX    TMP DP  RH WIND       PRES   REMARKS
OCEAN CITY     CLOUDY    44  32  62 SW10      30.52F
SALISBURY      CLOUDY    41  31  67 S10       30.50F
BAY BRIDGE AP* PTSUNNY   41  21  45 S13G21    30.48S
CAMBRIDGE*     SUNNY     43  28  56 S9G17     30.50S

$$

MDZ017>025-241400-
SOUTHERN MARYLAND

CITY           SKY/WX    TMP DP  RH WIND       PRES   REMARKS
PATUXENT RIVER PTSUNNY   40  27  59 SW8       30.50S
ST INIGOES     CLOUDY    40  28  62 S8        30.50S
LEONARDTOWN*   MOSUNNY   37  23  56 SW8       30.51S

$$

MDZ003>005-241400-
NORTH CENTRAL MARYLAND

CITY           SKY/WX    TMP DP  RH WIND       PRES   REMARKS
FREDERICK*     DRIZZLE   39  30  70 SW12      30.48R
HAGERSTOWN APT LGT RAIN  36  29  75 S13       30.36F WCI  27
WESTMINSTER*   CLOUDY    39  28  65 S10       30.40S

$$

MDZ501>502-241400-
WESTERN MARYLAND

CITY           SKY/WX    TMP DP  RH WIND       PRES   REMARKS
OAKLAND*       CLOUDY    41  36  81 S14G21    30.28F
CUMBERLAND*    CLOUDY    34  32  93 CALM      30.38F

$$

VAZ025>031-241400-
SHENANDOAH VALLEY

CITY           SKY/WX    TMP DP  RH WIND       PRES   REMARKS
WINCHESTER*    RAIN      36  32  87 S7        30.39F
FRONT ROYAL*     N/A    N/A N/A N/A MISG        N/A
LURAY*         LGT RAIN  39  36  87 SW6       30.42R
NEW MARKET*    CLOUDY    38  34  82 CALM      30.41R
STAUNTON*      CLOUDY    41  26  57 CALM      30.43R
WAYNESBORO*    CLOUDY    41  28  59 CALM      30.39R

$$

WVZ021-048>050-054>055-241400-
EASTERN WEST VIRGINIA PANHANDLE

CITY           SKY/WX    TMP DP  RH WIND       PRES   REMARKS
MARTINSBURG    LGT RAIN  34  30  85 S5        30.39S FOG
PETERSBURG*    CLOUDY    44  32  62 CALM      30.37S

$$

VAZ036>039-050-241400-
CENTRAL FOOTHILLS

CITY           SKY/WX    TMP DP  RH WIND       PRES   REMARKS
CHARLOTTESVILL LGT RAIN  41  26  55 S8        30.45R
CULPEPER*      DRIZZLE   39  29  66 S9        30.47R
ORANGE*        DRIZZLE   37  28  70 S8        30.49R
GORDONSVILLE*  CLOUDY    37  27  69 SW6       30.48R
WARRENTON*     CLOUDY    41  25  53 SW8G16    30.46R

$$

VAZ055>057-241400-
NORTH AND CENTRAL PIEDMONT

CITY           SKY/WX    TMP DP  RH WIND       PRES   REMARKS
FREDERICKSBRG* PTSUNNY   37  29  75 S6        30.49S
STAFFORD*      PTSUNNY   35  28  75 S3        30.53S

$$

NCZ024-NYZ072-PAZ021-071-VAZ022-071-241400-
OTHER REGIONAL OBSERVATIONS

CITY           SKY/WX    TMP DP  RH WIND       PRES   REMARKS
NEW YORK CITY  CLOUDY    40  22  48 S8        30.46F
PHILADELPHIA   CLOUDY    38  24  57 S10       30.48S
PITTSBURGH     CLOUDY    46  37  71 S13       30.21S
ROANOKE        PTSUNNY   43  26  51 SE5       30.45S
RICHMOND       CLOUDY    39  26  59 S8        30.50S
RALEIGH        MOSUNNY   43  32  65 S5        30.51F

$$

ANZ530>537-241400-
MARINE OBSERVATIONS

STATION/POSITION TIME  TEMP    WIND        PRES
                       AIR SEA DIR/SP/G
                 (UTC) (F)     (DEG/KT/KT) (MB)
THOMAS PT LIGHT  1200   39 43  200/ 21/ 23   N/A
BALT KEY BRIDGE  1242   38     200/  7/  8 1032.0R
COVE POINT       1242   38     210/ 13/ 15 1033.3R
LEWISETTA        1242   39 45  230/ 10/ 13 1032.6S
SOLOMONS ISLAND  1242   40 44  210/ 10/ 12   N/A
PINEY POINT      1248          220/  9/ 11   N/A

$$





USA.gov is the U.S. government's official web portal to all federal, state and local government web resources and services.